Regional Weather Roundup
Issued by NWS New Orleans/Baton Rouge, LA

Home | Current Version | Previous Version | Graphics & Text | Print | Product List | Glossary On
Versions: 1 2 3 4 5 6 7 8 9 10 11 12 13 14 15 16 17 18 19 20 21 22 23 24 25 26 27 28 29 30 31 32 33 34 35 36 37 38 39 40 41 42 43 44 45 46 47 48 49 50
971
ASUS44 KLIX 051305
RWRLIX
NEW ORLEANS REGIONAL WEATHER ROUNDUP
NATIONAL WEATHER SERVICE NEW ORLEANS LA
700 AM CST THU MAR 05 2015

NOTE: "FAIR" INDICATES FEW OR NO CLOUDS BELOW 12,000 FEET WITH NO
      SIGNIFICANT WEATHER AND/OR OBSTRUCTIONS TO VISIBILITY.
      SKY/WX - SKY CONDITION AND SIGNIFICANT WEATHER.
      TMP - AIR TEMPERATURE.     DP    - DEWPOINT TEMPERATURE.
      RH  - RELATIVE HUMIDITY.   PRES  - PRESSURE.
      HI  - HEAT INDEX.          WCI   - WIND CHILL INDEX.

*  THESE STATIONS ARE NOT NWS OR FAA STATIONS AND ARE NOT UNDER
   NWS QUALITY CONTROL.

LAZ038-040-048-061>063-065>067-069-051400-
SOUTHEAST LOUISIANA

CITY           SKY/WX    TMP DP  RH WIND       PRES   REMARKS
N.O. AUDUBON   NOT AVBL
N.O. INTL ARPT LGT RAIN  45  42  89 NW21G32   30.13R FOG
N.O. LAKEFRONT CLOUDY    49  45  86 NW32G40   30.12R
SLIDELL        CLOUDY    46  42  86 N14G31    30.10R
BATON ROUGE    CLOUDY    36  33  89 N9G21     30.20R WCI  29
BOOTHVILLE     FOG       70  69  97 SW5       29.99R VSB 1/4
BELLE CHASSE   LGT RAIN  49  46  90 NW18G30   30.07R FOG
BOGALUSA*      RAIN      43  37  82 N21G32    30.17R
GALLIANO*      PTSUNNY   59  56  90 NW29      30.04R
NEW ROADS*     RAIN      35  32  88 N14G24    30.22R WCI  26
GONZALES*      CLOUDY    38  37  96 NW17G28   30.18R WCI  29
HAMMOND*       LGT RAIN  39  36  87 N22G31    30.20R WCI  29
HOUMA*         LGT RAIN  61  57  88 NW23G35   30.04R
PORT FOURCHON* MOSUNNY   70  70 100 SW7       30.02R FOG

$$

MSZ070-080>082-051400-
SOUTHERN MISSISSIPPI

CITY           SKY/WX    TMP DP  RH WIND       PRES   REMARKS
MCCOMB         CLOUDY    34  32  92 N16G22    30.19R WCI  24
GULFPORT       CLOUDY    61  58  90 NW24G37   30.01R
BILOXI         FOG       65  65 100 SW5       29.98R VSB 0
PASCAGOULA     CLOUDY    68  67  96 SW3       29.98R FOG
STENNIS ARPT*  CLOUDY    48  43  81 NW18G29   30.07

$$

COASTAL OBSERVATIONS
LAKE AND NEARSHORE STATIONS

STATION/POSITION TIME  TEMP    WIND        PRES    WAVE
                       AIR SEA DIR/SP/G            HT/PER
                 (UTC) (F)     (DEG/KT/KT) (MB)    (FT/S)
PASCAGOULA       1300   65     240/  6/  8 1014.7
WAVELAND YACHT   1300      62  330/ 21/ 28 1016.8
GRAND ISLE       1300   72 66  220/  5/ 10 1015.8
SOUTHWEST PASS   1300   66 45  240/ 10/ 10 1015.7
NEW CANAL        1300   47     340/ 12/ 25 1020.2
SHELL BEACH      1300      61  300/ 27/ 33 1016.5

OFFSHORE STATIONS

STATION/POSITION TIME  TEMP    WIND        PRES    WAVE
                       AIR SEA DIR/SP/G            HT/PER
                 (UTC) (F)     (DEG/KT/KT) (MB)    (FT/S)
64 S DAUPHIN ISL 1222   73 71  200/ 12/ 14 1015.3    5/ 8

$$




USA.gov is the U.S. government's official web portal to all federal, state and local government web resources and services.